Location: Nairn
(57.5833°N, 3.8667°W)
Time: 03:18:10
(UTC+00:00)

Transit 2A - Visible Passes

Search period start: 19 May 2021 00:00
Search period end: 29 May 2021 00:00
Orbit: 602 x 957 km, 66.7° (Epoch: 18 May)

Date Brightness Start Highest point End Pass type
(mag) Time Alt. Az. Time Alt. Az. Time Alt. Az.
19 May 5.5 01:40:07 12° SW 01:44:10 89° NW 01:48:34 10° NE visible
19 May 7.5 23:25:59 12° SE 23:27:37 15° ESE 23:30:02 10° ENE visible
20 May 5.5 01:06:27 15° SSW 01:09:59 70° SE 01:14:21 10° NE visible
20 May 7.7 22:53:06 10° ESE 22:53:42 10° ESE 22:54:20 10° E visible
21 May 5.8 00:32:44 17° SSW 00:35:51 52° SE 00:40:06 10° NE visible
21 May 6.6 02:14:56 10° WSW 02:19:06 43° NNW 02:23:20 10° NE visible
21 May 6.2 23:58:57 18° S 00:01:46 38° ESE 00:05:50 10° NE visible
22 May 6.2 01:40:32 10° WSW 01:44:49 53° NW 01:49:08 10° NE visible
22 May 6.6 23:25:06 16° S 23:27:43 28° ESE 23:31:28 10° ENE visible
23 May 5.8 01:06:12 10° WSW 01:10:33 66° NW 01:14:56 10° NE visible
23 May 6.9 22:51:11 13° SSE 22:53:42 21° ESE 22:57:00 10° ENE visible
24 May 5.5 00:31:57 10° SW 00:36:20 85° NW 00:40:44 10° NE visible
24 May 7.3 02:16:04 10° W 02:19:59 31° NNW 02:24:00 10° NE visible
24 May 7.3 22:17:10 10° SSE 22:19:45 16° ESE 22:22:20 10° ENE visible
24 May 5.5 23:57:47 10° SW 00:02:09 74° SE 00:06:32 10° NE visible
25 May 7.1 01:41:35 10° W 01:45:37 36° NNW 01:49:45 10° NE visible
25 May 5.7 23:23:44 10° SSW 23:28:00 55° SE 23:32:18 10° NE visible
26 May 6.8 01:07:08 10° W 01:11:17 42° NNW 01:15:32 10° NE visible
26 May 6.0 22:49:48 10° SSW 22:53:54 41° SE 22:58:00 10° NE visible
27 May 6.4 00:32:44 10° WSW 00:36:59 51° NNW 00:41:19 10° NE visible
27 May 7.8 02:17:15 10° WNW 02:21:00 27° N 02:24:51 10° NE visible
27 May 6.4 22:16:01 10° S 22:19:51 30° ESE 22:23:41 10° ENE visible
27 May 6.0 23:58:23 10° WSW 00:02:43 63° NW 00:07:07 10° NE visible
28 May 7.7 01:42:47 10° WNW 01:46:35 28° NNW 01:50:30 10° NE visible
28 May 5.6 23:24:07 10° SW 23:28:30 81° NW 23:32:55 10° NE visible
